• Join FlightAware (Why Join?)
  • Login
  • US Flag 
01:57AM EDT


 

Airport Tracker/Info


-or-


 

Live Flight TrackerFlight Track Log ✈ UPS1219 ✈ 20-Sep-2013 ✈ KIAD - KSDF

Flight Track Log - Related Links

Times and Time Zones

All times are in EDT time to prevent confusion due to time zone crossing. See the UPS1219 flight status page for this flight to view local times or setup timezone preferences in your user account.

Time Position Orientation Groundspeed Altitude Reporting Facility
EDT Latitude Longitude Course Direction KTS MPH feet Rate Location/Type
11:01PM 38.9380 -77.5280 261° West 208 239 2,800  Level FlightAware
11:01PM 38.9320 -77.5560 255° West 248 285 3,600 3,240 Climbing FlightAware
11:02PM 38.9230 -77.5900 251° West 261 300 5,200 4,080 Climbing FlightAware
11:02PM 38.9160 -77.6210 254° West 271 312 6,600 4,020 Climbing FlightAware
11:02PM 38.9080 -77.6530 252° West 282 325 7,900 3,720 Climbing FlightAware
11:03PM 38.9010 -77.6860 255° West 292 336 9,100 3,480 Climbing FlightAware
11:03PM 38.8910 -77.7330 255° West 312 359 10,700 2,580 Climbing FlightAware
11:04PM 38.8840 -77.8050 263° West 361 415 11,900 2,640 Climbing FlightAware
11:04PM 38.8800 -77.8720 266° West 374 430 13,700 3,300 Climbing FlightAware
11:05PM 38.8740 -77.9550 265° West 385 443 15,700 3,240 Climbing FlightAware
11:06PM 38.8680 -78.0370 265° West 396 456 17,600 3,000 Climbing FlightAware
11:06PM 38.8610 -78.1200 264° West 407 468 19,300 2,700 Climbing FlightAware
11:07PM 38.8550 -78.2090 265° West 421 484 20,900 2,520 Climbing FlightAware
11:07PM 38.8540 -78.2970 269° West 434 499 22,300 2,340 Climbing FlightAware
11:08PM 38.8510 -78.3780 267° West 444 511 23,500 2,220 Climbing FlightAware
11:09PM 38.8380 -78.4760 260° West 459 528 24,900 2,160 Climbing FlightAware
11:09PM 38.8220 -78.5730 258° West 469 540 26,100 1,740 Climbing FlightAware
11:10PM 38.8060 -78.6680 258° West 482 555 27,000 720 Climbing FlightAware
11:10PM 38.7890 -78.7700 258° West 495 570 27,000 480 Level FlightAware
11:11PM 38.7720 -78.8710 258° West 507 583 27,600 1,800 Climbing FlightAware
11:11PM 38.7550 -78.9720 258° West 498 573 29,200 2,760 Climbing FlightAware
11:12PM 38.7410 -79.0540 258° West 487 560 30,600 2,280 Climbing FlightAware
11:13PM 38.7280 -79.1790 262° West 484 557 32,000 1,080 Climbing FlightAware
11:13PM 38.7200 -79.2720 264° West 480 552 32,000  Level FlightAware
11:14PM 38.7100 -79.3720 263° West 474 545 32,000  Level FlightAware
11:14PM 38.7000 -79.4690 263° West 472 543 32,000  Level FlightAware
11:15PM 38.6900 -79.5630 262° West 472 543 32,000  Level FlightAware
11:16PM 38.6800 -79.6590 262° West 473 544 32,000  Level FlightAware
11:16PM 38.6710 -79.7470 263° West 473 544 32,000  Level FlightAware
11:17PM 38.6620 -79.8330 262° West 474 545 32,000  Level FlightAware
11:17PM 38.6520 -79.9350 263° West 475 547 32,000  Level FlightAware
11:18PM 38.6410 -80.0390 262° West 476 548 32,000  Level FlightAware
11:19PM 38.6260 -80.1730 262° West 476 548 32,000  Level FlightAware
11:19PM 38.6160 -80.2700 263° West 475 547 32,000  Level FlightAware
11:20PM 38.6060 -80.3570 262° West 475 547 32,000  Level FlightAware
11:20PM 38.5940 -80.4730 262° West 472 543 32,000  Level FlightAware
11:21PM 38.5820 -80.5720 261° West 472 543 32,000  Level FlightAware
11:22PM 38.5660 -80.6760 259° West 473 544 32,000  Level FlightAware
11:22PM 38.5500 -80.7580 256° West 472 543 32,000  Level FlightAware
11:23PM 38.5300 -80.8610 256° West 469 540 32,000  Level FlightAware
11:23PM 38.5130 -80.9500 256° West 466 536 32,000  Level FlightAware
11:24PM 38.4950 -81.0380 255° West 464 534 32,000  Level FlightAware
11:25PM 38.4760 -81.1380 256° West 465 535 32,000  Level FlightAware
11:25PM 38.4580 -81.2290 256° West 465 535 32,000  Level FlightAware
11:26PM 38.4410 -81.3160 256° West 465 535 32,000  Level FlightAware
11:26PM 38.4200 -81.4180 255° West 463 533 32,000  Level FlightAware
11:27PM 38.4030 -81.5030 256° West 460 529 32,000  Level FlightAware
11:27PM 38.3840 -81.5960 255° West 458 527 32,000  Level FlightAware
11:28PM 38.3650 -81.6890 255° West 457 526 32,000  Level FlightAware
11:29PM 38.3450 -81.7850 255° West 456 525 32,000  Level FlightAware
11:29PM 38.3230 -81.8630 250° West 458 527 32,000  Level FlightAware
11:30PM 38.2980 -81.9520 250° West 457 526 32,000  Level FlightAware
11:30PM 38.2710 -82.0470 250° West 454 522 32,000  Level FlightAware
11:31PM 38.2480 -82.1310 251° West 447 514 32,000  Level FlightAware
11:32PM 38.2220 -82.2190 249° West 445 512 32,000 -300 Level FlightAware
11:32PM 38.1970 -82.3110 251° West 447 514 31,700 -720 Descending FlightAware
11:33PM 38.1740 -82.3890 249° West 450 518 31,200 -660 Descending FlightAware
11:33PM 38.1490 -82.4780 250° West 449 517 31,000 -180 Descending FlightAware
11:34PM 38.1240 -82.5660 250° West 444 511 31,000  Level FlightAware
11:34PM 38.1111 -82.6093 249° West 444 511 31,000  Level FlightAware ADS-B
11:35PM 38.0734 -82.7399 250° West 443 510 31,000  Level FlightAware ADS-B
11:36PM 38.0490 -82.8240 250° West 437 503 31,000  Level FlightAware
11:36PM 38.0386 -82.8603 250° West 438 504 31,000  Level FlightAware ADS-B
11:36PM 38.0171 -82.9344 250° West 439 505 31,000  Level FlightAware ADS-B
11:37PM 37.9947 -83.0112 250° West 438 504 31,000  Level FlightAware ADS-B
11:37PM 37.9732 -83.0847 250° West 439 505 31,000  Level FlightAware ADS-B
11:38PM 37.9520 -83.1572 250° West 437 503 31,000  Level FlightAware ADS-B
11:38PM 37.9275 -83.2402 250° West 436 502 31,000 -360 Level FlightAware ADS-B
11:39PM 37.9004 -83.3319 249° West 441 507 30,600 -840 Descending FlightAware ADS-B
11:40PM 37.8788 -83.4048 249° West 434 499 30,100 -1,140 Descending FlightAware ADS-B
11:40PM 37.8579 -83.4754 249° West 427 491 29,500 -1,080 Descending FlightAware ADS-B
11:41PM 37.8280 -83.5750 249° West 421 484 28,800 -1,020 Descending FlightAware
11:41PM 37.8164 -83.6153 250° West 420 483 28,500 -1,200 Descending FlightAware ADS-B
11:42PM 37.7790 -83.7394 249° West 416 479 27,400 -1,440 Descending FlightAware ADS-B
11:43PM 37.7572 -83.8119 249° West 413 475 26,500 -1,620 Descending FlightAware ADS-B
11:43PM 37.7359 -83.8831 249° West 406 467 25,700 -1,500 Descending FlightAware ADS-B
11:44PM 37.7122 -83.9622 249° West 401 461 24,800 -1,380 Descending FlightAware ADS-B
11:44PM 37.6875 -84.0438 249° West 391 450 24,000 -900 Descending FlightAware ADS-B
11:45PM 37.6677 -84.1088 249° West 390 449 23,800 -720 Descending FlightAware ADS-B
11:45PM 37.6603 -84.1341 250° West 389 448 23,500 -1,800 Descending FlightAware ADS-B
11:45PM 37.6580 -84.1450 255° West 388 447 23,300 -1,860 Descending FlightAware ADS-B
11:45PM 37.6558 -84.1628 261° West 387 445 23,100 -2,160 Descending FlightAware ADS-B
11:46PM 37.6560 -84.3060 270° West 383 441 20,700 -2,340 Descending FlightAware
11:47PM 37.6560 -84.3870 270° West 381 438 19,200 -2,280 Descending FlightAware
11:47PM 37.6560 -84.4480 270° West 369 425 18,300 -2,280 Descending FlightAware
11:48PM 37.6560 -84.5370 270° West 360 414 16,600 -2,400 Descending FlightAware
11:49PM 37.6550 -84.6370 269° West 352 405 14,700 -2,100 Descending FlightAware
11:49PM 37.6550 -84.6930 270° West 343 395 14,000 -1,500 Descending FlightAware
11:50PM 37.6550 -84.7610 270° West 333 383 13,100 -1,500 Descending FlightAware
11:51PM 37.6540 -84.8250 269° West 329 379 12,300 -1,380 Descending FlightAware
11:51PM 37.6550 -84.8990 271° West 317 365 11,500 -1,020 Descending FlightAware
11:52PM 37.6560 -84.9360 272° West 302 348 11,300 -900 Descending FlightAware
11:52PM 37.6640 -84.9590 294° West 298 343 11,000 -1,680 Descending FlightAware
11:52PM 37.6880 -85.0120 300° West 284 327 9,900 -1,620 Descending FlightAware
11:53PM 37.7000 -85.0400 298° West 280 322 9,500 -1,380 Descending FlightAware
11:53PM 37.7120 -85.0680 298° West 279 321 9,000 -1,500 Descending FlightAware
11:53PM 37.7270 -85.1010 300° West 274 315 8,400 -1,680 Descending FlightAware
11:54PM 37.7400 -85.1310 299° West 274 315 7,800 -1,680 Descending FlightAware
11:54PM 37.7520 -85.1580 299° West 272 313 7,300 -1,680 Descending FlightAware
11:54PM 37.7640 -85.1860 298° West 274 315 6,700 -1,860 Descending FlightAware
11:55PM 37.7790 -85.2180 301° West 275 316 6,000 -1,680 Descending FlightAware
11:55PM 37.7870 -85.2360 299° West 277 319 5,700 -1,500 Descending FlightAware
11:55PM 37.8040 -85.2760 298° West 270 311 5,000 -1,380 Descending FlightAware
11:56PM 37.8090 -85.3000 285° West 257 296 4,700 -480 Descending FlightAware
11:56PM 37.8170 -85.3440 283° West 256 295 4,600 -1,140 Descending FlightAware
11:57PM 37.8230 -85.3810 282° West 241 277 3,600 -1,020 Descending FlightAware
11:57PM 37.8310 -85.4310 281° West 232 267 3,500 -180 Descending FlightAware
12:00AM 37.9030 -85.6060 298° West 205 236 3,100 -180 Descending FlightAware
12:01AM 37.9210 -85.6240 322° Northwest 205 236 3,100  Level FlightAware
12:01AM 37.9340 -85.6380 320° Northwest 183 211 3,100  Level FlightAware
12:01AM 37.9410 -85.6440 326° Northwest 183 211 3,100  Level FlightAware
12:01AM 37.9480 -85.6480 336° Northwest 183 211 3,100  Level FlightAware
12:01AM 37.9570 -85.6520 341° North 184 212 3,100  Level FlightAware
12:02AM 37.9770 -85.6600 342° North 189 217 3,100  Level FlightAware
12:02AM 37.9850 -85.6630 344° North 191 220 3,100  Level FlightAware
12:02AM 38.0040 -85.6690 346° North 190 219 3,100  Level FlightAware
12:03AM 38.0210 -85.6750 344° North 188 216 3,100  Level FlightAware
12:03AM 38.0350 -85.6790 347° North 187 215 3,100 -540 Level FlightAware
12:03AM 38.0510 -85.6850 344° North 179 206 2,800 -1,020 Descending FlightAware
12:03AM 38.0660 -85.6900 345° North 166 191 2,500 -960 Descending FlightAware
12:04AM 38.0790 -85.6950 343° North 149 171 2,200 -780 Descending FlightAware
12:04AM 38.0920 -85.6990 346° North 131 151 2,000 -600 Descending FlightAware
12:04AM 38.1030 -85.7030 344° North 125 144 1,800 -540 Descending FlightAware
12:05AM 38.1120 -85.7060 345° North 124 143 1,700 -540 Descending FlightAware
12:05AM 38.1230 -85.7090 348° North 118 136 1,500 -600 Descending FlightAware
12:05AM 38.1330 -85.7130 343° North 116 133 1,300 -720 Descending FlightAware
12:06AM 38.1420 -85.7160 345° North 118 136 1,100 -720 Descending FlightAware
12:06AM 38.1520 -85.7190 347° North 119 137 900 -660 Descending FlightAware
12:06AM 38.1620 -85.7230 343° North 121 139 700 -720 Descending FlightAware
12:07AM 38.1730 -85.7260 348° North 100 115 -2,100 Descending FlightAware
12:07AM 38.1830 -85.7300 343° North 100 115  Level FlightAware